Regional Weather Roundup
Issued by NWS Portland, ME

Home | Current Version | Previous Version | Text Only | Print | Product List | Glossary On
Versions: 1 2 3 4 5 6 7 8 9 10 11 12 13 14 15 16 17 18 19 20 21 22 23 24 25 26 27 28 29 30 31 32 33 34 35 36 37 38 39 40 41 42 43 44 45 46 47 48 49 50
000
ASUS41 KGYX 311210
RWRGYX
WEATHER ROUNDUP FOR MAINE AND NEW HAMPSHIRE
NATIONAL WEATHER SERVICE GRAY ME
800 AM EDT TUE MAY 31 2016

MEZ002-005-006-010-012-015-018-020-021-024-026-027-029-311300-
MAINE

CITY           SKY/WX    TMP DP  RH WIND       PRES   REMARKS
PORTLAND       MOSUNNY   74  62  66 W9        29.86R
6HR MIN TEMP:  61; 6HR MAX TEMP:  74;

SANFORD        MOSUNNY   73  61  64 SW13      29.89S
BAR HARBOR     CLOUDY    60  60 100 S5        29.84R
WISCASSET      SUNNY     71  64  78 CALM      29.86R
6HR MIN TEMP:  56; 6HR MAX TEMP:  71;

ROCKLAND       MOSUNNY   64  63  96 W6        29.85R
FRYEBURG       SUNNY     74  58  57 W3        29.86S
6HR MIN TEMP:  60; 6HR MAX TEMP:  74;

LEWISTONAUBURN SUNNY    N/A N/A N/A CALM      29.85S
AUGUSTA        SUNNY     70  60  70 W6        29.85R
6HR MIN TEMP:  58; 6HR MAX TEMP:  70;

WATERVILLE     SUNNY     69  63  81 S3        29.82R
BANGOR         MOSUNNY   71  62  73 SW5       29.82S
6HR MIN TEMP:  59; 6HR MAX TEMP:  71;

GREENVILLE       N/A     66  56  70 CALM      29.83R
6HR MIN TEMP:  58; 6HR MAX TEMP:  67;

MILLINOCKET    SUNNY     66  62  87 E3        29.81S
6HR MIN TEMP:  56; 6HR MAX TEMP:  66;

HOULTON        SUNNY     71  61  70 W7        29.76R
6HR MIN TEMP:  60; 6HR MAX TEMP:  71;

PRESQUE ISLE   SUNNY     70  60  70 W10       29.76S
6HR MIN TEMP:  64; 6HR MAX TEMP:  70;

FRENCHVILLE    SUNNY     65  58  78 W10       29.75R
6HR MIN TEMP:  59; 6HR MAX TEMP:  65;

CARIBOU        SUNNY     69  61  75 SW7       29.74S
6HR MIN TEMP:  60; 6HR MAX TEMP:  69;

$$

NHZ002-005-008-009-011-012-014-311300-
NEW HAMPSHIRE

CITY           SKY/WX    TMP DP  RH WIND       PRES   REMARKS
PORTSMOUTH     PTSUNNY   73  62  69 SW9       29.88R
ROCHESTER      SUNNY     73  61  65 CALM      29.88R
6HR MIN TEMP:  65; 6HR MAX TEMP:  73;

NASHUA         SUNNY     73  61  65 W6        29.92R
MANCHESTER     PTSUNNY   73  59  61 W5        29.90R
6HR MIN TEMP:  67; 6HR MAX TEMP:  73;

CONCORD        SUNNY     74  54  49 VRB7      29.91R
6HR MIN TEMP:  65; 6HR MAX TEMP:  74;

LACONIA        SUNNY     71  54  54 SW8       29.91R
PLYMOUTH       FAIR      68  54  59 W5        29.90R
BERLIN         SUNNY     68  55  63 MISG      29.89S
6HR MIN TEMP:  50; 6HR MAX TEMP:  68;

WHITEFIELD     SUNNY     67  51  56 W8        29.91R
6HR MIN TEMP:  52; 6HR MAX TEMP:  67;

JAFFREY        SUNNY     69  55  60 W7        29.95R
6HR MIN TEMP:  63; 6HR MAX TEMP:  69;

KEENE          SUNNY     68  61  77 S3        29.95R
LEBANON        SUNNY     70  54  56 CALM      29.92R
6HR MIN TEMP:  59; 6HR MAX TEMP:  70;

MT WASHINGTON  FOG       43  43 100 W48G54      N/A  VSB 0
6HR MIN TEMP:  42; 6HR MAX TEMP:  46;

$$

VTZ005-007-008-311300-
VERMONT

CITY           SKY/WX    TMP DP  RH WIND       PRES   REMARKS
ST JOHNSBURY     N/A     66  53  63 MISG      29.88R
MONTPELIER     FAIR      65  49  56 VRB7      29.96R
BURLINGTON     FAIR      69  51  52 S9        29.90R
$$

MAZ007-012-024-CTZ003-RIZ002-NYZ038-NYZ072-311300-
SOUTHERN NEW ENGLAND AND NY

CITY           SKY/WX    TMP DP  RH WIND       PRES   REMARKS
BOSTON         CLOUDY    74  65  73 W9        29.92R
WORCESTER      CLOUDY    69  60  73 W12       29.96R
NANTUCKET      LGT RAIN  62  61  96 SW10      29.98R FOG
PROVIDENCE     CLOUDY    72  66  81 W7        29.95
HARTFORD       PTSUNNY   72  58  61 NW5       29.95R
ALBANY         MOSUNNY   69  56  62 W8        29.97R
NEW YORK CITY  PTSUNNY   74  64  72 NW3       29.95R
$$

ANZ081-ANZ082-ANZ150-NHZ014-MEZ023>029-311300-
COASTAL MARINE OBSERVATIONS

STATION/POSITION TIME  TEMP    WIND        PRES    WAVE
                       AIR SEA DIR/SP/G            HT/PER
                 (UTC) (F)     (DEG/KT/KT) (MB)    (FT/S)
MOUNT DESERT ROC 1200   52     220/ 14/ 15 1010.7R
MATINICUS ROCK   1200   55     240/ 14/ 14 1010.5R
ISLE OF SHOALS   1200   70     250/ 15/ 17 1012.0R
JEFFREYS LEDGE   1108      54                N/A     3/ 5
CASHES LEDGE BUO 1150   55 51  230/ 12/ 12 1011.0R   4/ 6
GEORGES BANK BUO 1150   59 53              1015.5R   3/ 6
$$

.............KEY..............
   WCI - WIND CHILL
   TC  - TEMPERATURE IN CELSIUS
   VSB - VISIBILITY IN MILES
   HX  - HEAT INDEX
   FAIR- INDICATES FEW OR NO CLOUDS BELOW 12,000 FT, WITH NO
         SIGNIFICANT WEATHER AND/OR OBSTRUCTIONS TO VISIBILITY.






USA.gov is the U.S. government's official web portal to all federal, state and local government web resources and services.